Location: Bern�tre
(50.1974°N, 2.0915°E)
Time: 06:03:16
(UTC+00:00)

Cosmos 1048 Rocket - Pass Details

Date: 18 September 2020
Orbit: 742 x 792 km, 74.0° (Epoch: 27 October)

Event Time Altitude Azimuth Distance (km) Brightness Sun altitude
Rises 19:22:51 0° 337° (NNW) 3,254 7.9 -14.1°
Reaches altitude 10° 19:25:15 10° 340° (NNW) 2,331 7.1 -14.5°
Maximum altitude 19:30:32 68° 64° (ENE) 845 4.0 -15.3°
Enters shadow 19:34:12 20° 143° (SE) 1,732 5.3 -15.8°
